Regional Weather Roundup
Issued by NWS Glasgow, MT

Home | Current Version | Previous Version | Text Only | Print | Product List | Glossary On
Versions: 1 2 3 4 5 6 7 8 9 10 11 12 13 14 15 16 17 18 19 20 21 22 23 24 25 26 27 28 29 30 31 32 33 34 35 36 37 38 39 40 41 42 43 44 45 46 47 48 49 50
000
ASUS45 KGGW 221415
RWRGGW
HOURLY REGIONAL WEATHER ROUNDUP FOR NORTHEAST MONTANA
NATIONAL WEATHER SERVICE GLASGOW MONTANA
800 AM MDT SAT JUL 22 2017

NOTE: "FAIR" INDICATES FEW OR NO CLOUDS BELOW 12,000 FEET WITH NO
SIGNIFICANT WEATHER AND/OR OBSTRUCTIONS TO VISISBILITY.

NORTHEAST MONTANA


CITY           SKY/WX    TMP DP  RH WIND       PRES   REMARKS
GLASGOW        SUNNY     65  45  48 W10       30.08R
PLENTYWOOD       N/A     61  49  64 NW3G14      N/A
WOLF POINT     SUNNY     65  47  52 SW9       30.05R
JORDAN           N/A     70  42  36 NW10      30.10S
WINNETT          N/A     63  37  38 S3          N/A
SIDNEY         MOSUNNY   70  44  39 NW15G22   30.02R
GLENDIVE       SUNNY     74  46  36 NW6       30.06R
MALTA            N/A     61  48  62 SW7         N/A
SCOBEY           N/A     61  46  57 W13       30.03R

FORT PECK REPORTS


CITY           SKY/WX    TMP DP  RH WIND       PRES   REMARKS
FORT PECK        N/A     64  43  46 W10         N/A
THE PINES        N/A     68  42  38 W6          N/A

SOUTHEAST MONTANA


CITY           SKY/WX    TMP DP  RH WIND       PRES   REMARKS
BILLINGS       MOSUNNY   64  31  28 SW5       30.16R
MILES CITY     SUNNY     67  31  26 NW7       30.09R
BAKER          SUNNY     69  37  30 W6        30.08R
LIVINGSTON     SUNNY     54  36  50 NW7       30.23R

CENTRAL MONTANA


CITY           SKY/WX    TMP DP  RH WIND       PRES   REMARKS
HAVRE          SUNNY     61  44  53 CALM      30.13R
LEWISTOWN      SUNNY     60  36  40 SE5       30.19R
GREAT FALLS    SUNNY     60  38  43 W5        30.17R
CUT BANK       MOSUNNY   57  44  62 CALM      30.16S
HELENA         SUNNY     63  36  36 CALM      30.21R
BUTTE          SUNNY     49  32  52 CALM      30.30R
BOZEMAN        SUNNY     58  40  51 E3        30.24R

WESTERN MONTANA


CITY           SKY/WX    TMP DP  RH WIND       PRES   REMARKS
MISSOULA       SUNNY     56  36  47 SE5       30.24R
KALISPELL      NOT AVBL

NORTH DAKOTA


CITY           SKY/WX    TMP DP  RH WIND       PRES   REMARKS
WILLISTON      SUNNY     70  46  42 W18       29.99S
DICKINSON      SUNNY     68  48  48 W9        30.02R
MINOT          SUNNY     71  55  56 W14       29.93R
BISMARCK       SUNNY     69  59  70 W8        29.97R

SOUTHERN SASKATCHEWAN


CITY           SKY/WX    TMP DP  RH WIND       PRES   REMARKS
REGINA         MOSUNNY   61  55  82 NW10      29.99R
ESTEVAN        PTSUNNY   59  55  88 W6        29.98R
SWIFT CURRENT  SUNNY     57  52  82 W9        30.06R




USA.gov is the U.S. government's official web portal to all federal, state and local government web resources and services.